TimeEST,TemperatureF,Dew PointF,Humidity,Sea Level PressureIn,VisibilityMPH,Wind Direction,Wind SpeedMPH,Gust SpeedMPH,PrecipitationIn,Events,Conditions,WindDirDegrees,DateUTC
12:54 AM,12.0,1.0,61,30.17,10.0,North,6.9,-,0.00,,Overcast,350,2013-02-02 05:54:00
1:54 AM,12.0,1.0,61,30.18,10.0,Variable,4.6,-,N/A,,Overcast,0,2013-02-02 06:54:00
2:54 AM,10.9,1.0,64,30.19,10.0,North,6.9,-,N/A,,Overcast,360,2013-02-02 07:54:00
3:54 AM,9.0,1.0,70,30.20,10.0,NE,4.6,-,N/A,,Clear,40,2013-02-02 08:54:00
4:54 AM,9.0,1.0,70,30.19,10.0,East,4.6,-,N/A,,Overcast,90,2013-02-02 09:54:00
5:54 AM,9.0,1.0,70,30.17,10.0,ESE,8.1,-,N/A,,Scattered Clouds,110,2013-02-02 10:54:00
6:54 AM,8.6,1.4,73,30.15,10.0,Calm,Calm,-,N/A,,Scattered Clouds,0,2013-02-02 11:54:00
7:01 AM,10.4,1.4,67,30.15,10.0,SSE,3.5,-,N/A,,Overcast,160,2013-02-02 12:01:00
7:28 AM,10.4,1.4,67,30.16,8.0,Calm,Calm,-,N/A,,Overcast,0,2013-02-02 12:28:00
7:54 AM,10.9,3.0,70,30.19,9.0,Calm,Calm,-,0.00,Snow,Light Snow,0,2013-02-02 12:54:00
8:54 AM,12.9,3.9,67,30.18,10.0,South,8.1,-,0.00,,Scattered Clouds,190,2013-02-02 13:54:00
9:54 AM,16.0,3.0,57,30.15,10.0,South,10.4,-,N/A,,Scattered Clouds,180,2013-02-02 14:54:00
10:54 AM,19.0,3.9,52,30.13,10.0,South,11.5,18.4,N/A,,Overcast,190,2013-02-02 15:54:00
11:54 AM,21.0,5.0,50,30.09,10.0,SSW,13.8,-,N/A,,Scattered Clouds,200,2013-02-02 16:54:00
12:54 PM,21.9,5.0,48,30.06,10.0,South,15.0,25.3,N/A,,Mostly Cloudy,180,2013-02-02 17:54:00
1:54 PM,21.9,6.1,51,30.04,10.0,South,16.1,23.0,N/A,,Mostly Cloudy,190,2013-02-02 18:54:00
2:54 PM,21.9,7.0,53,30.04,10.0,South,11.5,20.7,N/A,,Overcast,190,2013-02-02 19:54:00
3:54 PM,21.0,9.0,60,30.04,9.0,South,12.7,21.9,0.00,,Overcast,190,2013-02-02 20:54:00
4:54 PM,21.0,9.0,60,30.03,10.0,South,11.5,-,N/A,,Overcast,190,2013-02-02 21:54:00
5:54 PM,21.0,9.0,60,30.04,10.0,South,8.1,-,N/A,,Overcast,180,2013-02-02 22:54:00
6:54 PM,21.0,10.0,63,30.04,10.0,South,6.9,-,N/A,,Overcast,190,2013-02-02 23:54:00
7:54 PM,19.9,10.0,65,30.04,10.0,South,5.8,-,N/A,,Overcast,190,2013-02-03 00:54:00
8:54 PM,19.9,10.0,65,30.04,10.0,South,4.6,-,N/A,,Overcast,170,2013-02-03 01:54:00
9:54 PM,18.0,10.0,71,30.04,10.0,South,5.8,-,N/A,,Partly Cloudy,190,2013-02-03 02:54:00
10:54 PM,18.0,10.9,74,30.05,10.0,NW,8.1,-,N/A,,Mostly Cloudy,310,2013-02-03 03:54:00
11:29 PM,17.6,10.4,73,30.03,10.0,NW,5.8,-,N/A,,Overcast,320,2013-02-03 04:29:00
11:54 PM,15.1,10.0,80,30.05,7.0,NW,5.8,-,0.00,Snow,Light Snow,320,2013-02-03 04:54:00